Total_Precipitation_Accumulation
1.14 1.42 1.47 1.60 1.36 1.31 1.21 1.06 0.88 0.80 0.69 0.62 0.61 0.64 0.72 0.72 0.78 0.90 0.92 0.89 0.90 1.09 1.42 1.53 1.42 1.37 1.29 1.19 1.11 1.03 0.96 0.92 0.84 0.73 0.59 0.50 0.46 0.45 0.47 0.51 0.50 0.46 0.45
1.57 1.93 1.99 1.90 1.69 1.71 1.78 1.75 1.55 1.31 1.09 1.02 0.94 0.92 0.96 1.01 1.09 1.10 1.13 1.06 0.97 1.06 1.33 1.54 1.64 1.70 1.61 1.41 1.25 1.14 1.11 1.07 1.01 0.89 0.78 0.71 0.64 0.60 0.58 0.56 0.54 0.50 0.45
2.02 2.11 2.35 2.30 2.11 2.03 1.97 1.91 2.02 1.96 1.63 1.38 1.26 1.21 1.29 1.32 1.33 1.36 1.44 1.45 1.25 1.17 1.25 1.41 1.54 1.59 1.61 1.60 1.50 1.38 1.35 1.22 1.11 0.99 0.92 0.86 0.80 0.78 0.73 0.66 0.63 0.59 0.54
2.35 2.38 2.41 2.41 2.32 2.28 2.44 2.50 2.40 2.33 2.21 1.94 1.75 1.62 1.57 1.65 1.54 1.51 1.49 1.60 1.65 1.40 1.19 1.19 1.25 1.33 1.49 1.70 1.79 1.82 1.69 1.50 1.34 1.22 1.14 1.04 0.96 0.88 0.80 0.73 0.70 0.69 0.65
2.75 2.83 2.89 2.93 2.78 2.79 2.75 2.63 2.76 2.65 2.55 2.32 1.96 1.79 1.64 1.68 1.60 1.41 1.40 1.51 1.57 1.47 1.35 1.20 1.19 1.27 1.47 1.72 1.88 2.00 1.92 1.71 1.56 1.44 1.37 1.29 1.16 1.03 0.91 0.83 0.80 0.80 0.79
3.51 3.52 3.48 3.47 3.33 3.20 3.06 2.97 2.91 2.68 2.53 2.30 1.92 1.74 1.60 1.46 1.40 1.40 1.26 1.25 1.26 1.17 1.22 1.21 1.19 1.16 1.30 1.48 1.70 1.88 1.87 1.78 1.68 1.57 1.43 1.38 1.29 1.17 1.06 0.99 0.95 0.95 0.94
3.99 3.82 3.70 3.74 3.56 3.38 3.19 3.03 2.91 2.79 2.49 2.24 2.15 1.89 1.54 1.34 1.24 1.16 1.14 1.10 1.04 1.03 1.13 1.13 1.07 1.05 1.08 1.28 1.36 1.50 1.64 1.71 1.75 1.71 1.64 1.57 1.44 1.28 1.20 1.17 1.16 1.15 1.09
4.32 4.12 4.06 3.95 3.71 3.53 3.29 3.04 2.88 2.81 2.56 2.36 2.32 2.24 1.80 1.45 1.15 0.90 0.91 0.93 0.93 0.95 0.96 0.92 0.88 0.88 0.92 1.02 1.12 1.30 1.48 1.64 1.73 1.77 1.73 1.58 1.49 1.39 1.35 1.33 1.32 1.29 1.25
4.69 4.50 4.37 4.09 3.84 3.55 3.27 3.00 2.79 2.69 2.59 2.45 2.26 2.32 2.06 1.67 1.29 1.00 0.85 0.80 0.83 0.91 0.91 0.87 0.82 0.81 0.84 0.92 1.07 1.17 1.25 1.28 1.36 1.44 1.46 1.49 1.48 1.43 1.39 1.39 1.40 1.41 1.44
3.99 3.91 3.84 3.67 3.44 3.16 2.96 2.72 2.51 2.40 2.47 2.35 2.21 2.01 1.87 1.64 1.45 1.20 0.95 0.85 0.83 0.86 0.89 0.87 0.85 0.84 0.84 0.88 0.99 1.10 1.08 1.03 1.08 1.11 1.12 1.12 1.16 1.18 1.21 1.26 1.28 1.33 1.40
3.32 3.11 3.00 2.89 2.75 2.61 2.46 2.38 2.31 2.17 2.11 2.00 1.88 1.78 1.69 1.56 1.35 1.18 1.04 0.92 0.90 0.91 0.92 0.93 0.94 0.92 0.89 0.90 0.88 0.96 0.99 0.90 0.89 0.92 0.92 0.90 0.93 1.03 1.10 1.10 1.09 1.14 1.25
2.68 2.34 2.16 2.05 1.96 1.89 1.89 1.91 1.91 1.85 1.78 1.73 1.66 1.54 1.46 1.44 1.35 1.26 1.13 1.02 1.03 0.99 0.95 0.93 0.91 0.93 0.93 0.89 0.90 0.99 0.86 0.81 0.79 0.79 0.85 0.90 0.90 0.92 0.98 1.05 1.11 1.17 1.22
2.15 1.82 1.64 1.57 1.52 1.50 1.45 1.47 1.49 1.46 1.44 1.45 1.43 1.38 1.35 1.30 1.29 1.28 1.35 1.28 1.09 0.92 0.87 0.87 0.83 0.81 0.83 0.84 0.90 0.98 0.82 0.79 0.80 0.83 0.85 0.85 0.85 0.87 0.88 0.90 0.94 1.01 1.05
1.68 1.46 1.31 1.23 1.12 1.02 1.01 1.06 1.10 1.10 1.10 1.17 1.22 1.26 1.28 1.26 1.23 1.20 1.24 1.30 1.30 1.19 1.02 0.92 0.88 0.86 0.86 0.88 0.98 0.95 0.80 0.90 0.86 0.88 0.87 0.82 0.81 0.78 0.75 0.74 0.74 0.76 0.78
1.18 1.04 0.92 0.83 0.80 0.74 0.74 0.78 0.82 0.83 0.87 0.93 1.00 1.08 1.18 1.25 1.28 1.25 1.25 1.25 1.32 1.36 1.27 1.08 1.01 0.97 0.91 0.93 1.10 0.85 0.84 1.01 0.92 0.86 0.81 0.76 0.72 0.66 0.60 0.57 0.54 0.53 0.52
0.89 0.77 0.65 0.57 0.58 0.60 0.62 0.59 0.61 0.63 0.65 0.71 0.78 0.87 0.97 1.08 1.21 1.27 1.35 1.34 1.30 1.29 1.27 1.10 1.04 1.03 0.94 0.90 1.10 0.91 0.90 0.95 0.80 0.71 0.63 0.58 0.56 0.53 0.50 0.47 0.46 0.44 0.41
0.82 0.71 0.64 0.60 0.57 0.54 0.52 0.54 0.53 0.55 0.59 0.62 0.61 0.66 0.76 0.83 0.93 1.02 1.08 1.12 1.16 1.16 1.17 1.12 1.04 1.03 1.00 0.96 0.95 0.84 0.79 0.76 0.73 0.67 0.54 0.49 0.46 0.43 0.42 0.42 0.41 0.39 0.37
0.63 0.58 0.53 0.53 0.53 0.50 0.49 0.49 0.47 0.45 0.44 0.44 0.45 0.50 0.57 0.61 0.68 0.72 0.77 0.83 0.88 0.93 0.97 1.07 1.10 1.02 0.99 0.93 0.87 0.76 0.62 0.56 0.58 0.59 0.51 0.46 0.44 0.43 0.41 0.41 0.40 0.35 0.29
0.53 0.52 0.48 0.47 0.47 0.46 0.43 0.41 0.41 0.35 0.32 0.33 0.35 0.39 0.44 0.46 0.49 0.50 0.54 0.57 0.63 0.72 0.86 0.98 1.04 1.00 0.93 0.85 0.79 0.65 0.57 0.58 0.45 0.45 0.41 0.40 0.41 0.39 0.36 0.31 0.28 0.26 0.21
0.49 0.50 0.46 0.42 0.35 0.32 0.30 0.33 0.36 0.32 0.28 0.27 0.29 0.31 0.34 0.36 0.38 0.40 0.41 0.44 0.51 0.64 0.77 0.86 0.86 0.82 0.79 0.71 0.71 0.65 0.57 0.52 0.44 0.32 0.31 0.28 0.28 0.26 0.24 0.21 0.19 0.17 0.16
0.42 0.41 0.37 0.35 0.31 0.28 0.28 0.29 0.31 0.29 0.28 0.26 0.24 0.23 0.26 0.30 0.35 0.35 0.35 0.40 0.48 0.60 0.68 0.72 0.71 0.65 0.63 0.63 0.64 0.58 0.53 0.48 0.40 0.31 0.30 0.24 0.24 0.26 0.27 0.24 0.20 0.15 0.10
0.38 0.36 0.33 0.32 0.30 0.26 0.28 0.27 0.26 0.30 0.32 0.32 0.27 0.24 0.24 0.24 0.28 0.30 0.33 0.39 0.47 0.51 0.54 0.56 0.56 0.58 0.55 0.55 0.59 0.57 0.54 0.54 0.50 0.37 0.36 0.29 0.23 0.31 0.33 0.29 0.21 0.14 0.10
0.39 0.35 0.31 0.29 0.32 0.31 0.29 0.25 0.25 0.31 0.34 0.35 0.33 0.30 0.25 0.22 0.28 0.31 0.32 0.34 0.39 0.40 0.44 0.50 0.54 0.55 0.54 0.60 0.68 0.66 0.63 0.61 0.56 0.43 0.46 0.44 0.34 0.37 0.28 0.21 0.19 0.15 0.12
0.39 0.37 0.33 0.31 0.31 0.30 0.29 0.27 0.26 0.28 0.35 0.34 0.33 0.33 0.34 0.33 0.30 0.30 0.26 0.29 0.34 0.38 0.41 0.44 0.54 0.53 0.49 0.54 0.64 0.67 0.62 0.59 0.57 0.53 0.55 0.56 0.41 0.36 0.26 0.32 0.29 0.20 0.15
0.39 0.34 0.33 0.33 0.33 0.32 0.30 0.28 0.27 0.28 0.31 0.27 0.25 0.28 0.28 0.29 0.29 0.32 0.30 0.32 0.35 0.40 0.39 0.45 0.49 0.51 0.55 0.59 0.59 0.61 0.66 0.73 0.70 0.62 0.61 0.62 0.53 0.42 0.34 0.39 0.36 0.25 0.23
0.39 0.32 0.33 0.35 0.35 0.36 0.31 0.28 0.28 0.24 0.26 0.23 0.23 0.24 0.26 0.23 0.21 0.21 0.22 0.31 0.42 0.41 0.39 0.44 0.59 0.76 0.81 0.77 0.68 0.67 0.75 0.80 0.79 0.82 0.71 0.68 0.64 0.52 0.49 0.41 0.40 0.41 0.45